Flag for Germany Weather past 2 weeks in Meerbusch, North Rhine-Westphalia, Germany

Now
64 °F

Partly sunny.


Feels Like: 64 °F
Forecast: 57 / 71 °F
Wind: 6 mph from Northeast

Location: Duesseldorf

Current Time: Sep 2, 2014 at 7:46:25 PM

Latest Report: Sep 2, 2014 at 7:20 PM


Visibility: N/A

Pressure: 30.18 "Hg

Humidity: 78%

Dew point: 57 °F

Location of MeerbuschLocation

Historic Weather in Meerbusch — Graph

°F

Meerbusch temperature yesterday

Maximum temperature yesterday: 66 °F (at 3:50 PM)
Minimum temperature yesterday: 48 °F (at 2:50 AM)
Average temperature yesterday: 58 °F

Past Weeks' High & Low Weather Summary

 TemperatureHumidityPressure
High73 °F (Aug 28, 2:20 PM)100% (Aug 26, 8:20 AM)30.18 "Hg (Aug 26, 8:20 AM)
Low46 °F (Aug 20, 2:50 AM)40% (Aug 27, 4:20 PM)29.62 "Hg (Aug 26, 4:50 AM)
Average58 °F79%29.97 "Hg
* Reported Aug 18 6:20 PM — Sep 2 6:50 PM, Meerbusch, Weather by CustomWeather, © 2014

Note: Actual official high and low records may vary slightly from our data, if they occured in-between our weather recording intervals... More about our weather records

Advertising

Meerbusch weather history for previous 24 hours

 ConditionsComfort  
Time TempWeatherWind HumidityBarometerVisibility
6:50 PM
Sep 2
64 °FPartly sunny.9 mph78%30.18 "HgN/A
6:20 PM66 °FPartly sunny.7 mph73%30.18 "HgN/A
5:50 PM66 °FBroken clouds.8 mph73%30.18 "HgN/A
5:20 PM66 °FPartly sunny.9 mph73%30.18 "HgN/A
4:50 PM66 °FBroken clouds.9 mph78%30.18 "HgN/A
4:20 PM66 °FBroken clouds.10 mph73%30.18 "HgN/A
3:20 PM66 °FPartly sunny.9 mph68%30.18 "HgN/A
2:50 PM68 °FPartly sunny.9 mph64%30.18 "HgN/A
2:20 PM68 °FPartly sunny.9 mph64%30.18 "HgN/A
1:50 PM68 °FPartly sunny.9 mph60%30.18 "HgN/A
1:20 PM68 °FScattered clouds.6 mph60%30.18 "HgN/A
12:50 PM68 °FScattered clouds.8 mph60%30.18 "HgN/A
12:20 PM66 °FPassing clouds.7 mph60%30.18 "HgN/A
11:50 AM66 °FSunny.6 mph64%30.18 "Hg10 mi
11:20 AM64 °FSunny.6 mph68%30.18 "Hg10 mi
10:50 AM64 °FSunny.5 mph73%30.18 "Hg10 mi
10:20 AM63 °FSunny.3 mph77%30.18 "Hg10 mi
9:50 AM61 °FSunny.No wind83%30.18 "Hg10 mi
9:20 AM59 °FSunny.2 mph88%30.18 "Hg10 mi
8:50 AM57 °FSunny.2 mph94%30.18 "Hg10 mi
8:20 AM54 °FSunny.2 mph100%30.18 "Hg10 mi
7:50 AM52 °FSunny.5 mph100%30.18 "Hg10 mi
7:20 AM50 °FFog.5 mph94%30.18 "HgN/A
6:50 AM50 °FFog.2 mph94%30.15 "HgN/A
6:20 AM50 °FFog.2 mph94%30.15 "HgN/A
5:50 AM50 °FFog.2 mph94%30.15 "HgN/A
5:20 AM50 °FFog.2 mph100%30.15 "HgN/A
4:50 AM50 °FFog.3 mph100%30.15 "HgN/A
4:20 AM52 °FFog.3 mph94%30.15 "HgN/A
3:50 AM52 °FFog.3 mph94%30.15 "HgN/A
3:20 AM52 °FFog.1 mph94%30.15 "HgN/A
2:50 AM54 °FFog.2 mph94%30.15 "HgN/A
2:20 AM54 °FFog.2 mph94%30.15 "HgN/A
1:50 AM54 °FFog.3 mph94%30.15 "HgN/A
1:20 AM55 °FFog.2 mph94%30.15 "HgN/A
12:50 AM55 °FFog.1 mph94%30.15 "HgN/A
12:20 AM57 °FClear.3 mph88%30.15 "Hg10 mi
11:50 PM
Sep 1
57 °FClear.5 mph94%30.15 "Hg10 mi
11:20 PM57 °FClear.1 mph94%30.15 "Hg10 mi
10:20 PM59 °FClear.2 mph88%30.15 "Hg10 mi
9:50 PM59 °FClear.2 mph82%30.12 "Hg10 mi
9:20 PM59 °FClear.No wind82%30.12 "Hg10 mi
8:50 PM61 °FSunny.1 mph77%30.12 "Hg10 mi
8:20 PM63 °FSunny.5 mph77%30.12 "Hg10 mi
7:50 PM64 °FSunny.2 mph68%30.12 "Hg10 mi
7:20 PM64 °FSunny.3 mph68%30.12 "Hg10 mi
Weather by CustomWeather, © 2014

See weather overviewHow to use our weather pages